• In France
  • List of Countries
  • For 7 days
  • Water Temperature
  • Satellite Maps
  • Weather Map
  • Weather Widgets
  • user-avatar
    Login

    Hourly Weather Harachi

    Today, 22 August, Wednesday

    Time Temperature Precipitation Wind Pressure Humidity
    00:00 +16°C° 0 mm 2 mps 658 mmHg 71%
    01:00 +15°C° 0 mm 2 mps 658 mmHg 68%
    02:00 +15°C° 0 mm 2 mps 658 mmHg 65%
    03:00 +15°C° 0 mm 2 mps 658 mmHg 63%
    04:00 +15°C° 0 mm 2 mps 658 mmHg 62%
    05:00 +16°C° 0 mm 2 mps 658 mmHg 60%
    06:00 +16°C° 0 mm 2 mps 658 mmHg 59%
    07:00 +18°C° 0 mm 2 mps 659 mmHg 55%
    08:00 +20°C° 0 mm 2 mps 659 mmHg 51%
    09:00 +23°C° 0 mm 1 mps 660 mmHg 47%
    10:00 +24°C° 0 mm 2 mps 660 mmHg 47%
    11:00 +25°C° 0 mm 2 mps 660 mmHg 47%
    12:00 +25°C° 0 mm 2 mps 660 mmHg 47%
    13:00 +25°C° 0.3 mm 2 mps 660 mmHg 49%
    14:00 +25°C° 0.3 mm 2 mps 659 mmHg 51%
    15:00 +25°C° 0.3 mm 2 mps 659 mmHg 54%
    16:00 +24°C° 0.4 mm 2 mps 659 mmHg 59%
    17:00 +23°C° 0.4 mm 2 mps 659 mmHg 64%
    18:00 +22°C° 0.4 mm 1 mps 659 mmHg 70%
    19:00 +21°C° 0.2 mm 1 mps 659 mmHg 72%
    20:00 +20°C° 0.2 mm 1 mps 659 mmHg 75%
    21:00 +18°C° 0.2 mm 2 mps 659 mmHg 78%
    22:00 +17°C° 0.2 mm 2 mps 659 mmHg 78%
    23:00 +17°C° 0.2 mm 2 mps 659 mmHg 78%

    Tomorrow, 23 August, Thursday

    Time Temperature Precipitation Wind Pressure Humidity
    00:00 +17°C° 0.2 mm 2 mps 659 mmHg 78%
    01:00 +16°C° 0 mm 2 mps 659 mmHg 78%
    02:00 +16°C° 0 mm 2 mps 659 mmHg 78%
    03:00 +16°C° 0 mm 2 mps 659 mmHg 78%
    04:00 +16°C° 0 mm 2 mps 659 mmHg 77%
    05:00 +16°C° 0 mm 2 mps 659 mmHg 76%
    06:00 +16°C° 0 mm 2 mps 659 mmHg 75%
    07:00 +18°C° 0 mm 2 mps 660 mmHg 67%
    08:00 +20°C° 0 mm 2 mps 661 mmHg 60%
    09:00 +23°C° 0 mm 2 mps 661 mmHg 53%
    10:00 +24°C° 0 mm 2 mps 661 mmHg 50%
    11:00 +25°C° 0 mm 3 mps 661 mmHg 48%
    12:00 +25°C° 0 mm 3 mps 662 mmHg 46%
    13:00 +25°C° 0.1 mm 3 mps 661 mmHg 47%
    14:00 +25°C° 0.1 mm 3 mps 661 mmHg 48%
    15:00 +25°C° 0.1 mm 3 mps 661 mmHg 49%
    16:00 +24°C° 0 mm 2 mps 661 mmHg 54%
    17:00 +21°C° 0 mm 2 mps 661 mmHg 59%
    18:00 +20°C° 0 mm 2 mps 660 mmHg 65%
    19:00 +19°C° 0 mm 2 mps 661 mmHg 70%
    20:00 +19°C° 0 mm 1 mps 661 mmHg 75%
    21:00 +16°C° 0 mm 1 mps 661 mmHg 80%
    22:00 +16°C° 0 mm 1 mps 661 mmHg 80%
    23:00 +16°C° 0 mm 1 mps 661 mmHg 80%

    Day after tomorrow, 24 August, Friday

    Time Temperature Precipitation Wind Pressure Humidity
    00:00 +15°C° 0 mm 2 mps 660 mmHg 79%
    01:00 +15°C° 0 mm 2 mps 660 mmHg 79%
    02:00 +15°C° 0 mm 2 mps 660 mmHg 79%
    03:00 +15°C° 0 mm 2 mps 660 mmHg 78%
    04:00 +15°C° 0 mm 2 mps 660 mmHg 78%
    05:00 +15°C° 0 mm 2 mps 660 mmHg 77%
    06:00 +16°C° 0 mm 2 mps 660 mmHg 77%
    07:00 +18°C° 0 mm 2 mps 661 mmHg 72%
    08:00 +19°C° 0 mm 3 mps 661 mmHg 66%
    09:00 +21°C° 0 mm 3 mps 662 mmHg 61%
    10:00 +22°C° 0 mm 3 mps 662 mmHg 60%
    11:00 +22°C° 0 mm 4 mps 661 mmHg 60%
    12:00 +23°C° 0 mm 4 mps 661 mmHg 59%
    13:00 +23°C° 0.1 mm 4 mps 661 mmHg 61%
    14:00 +23°C° 0.1 mm 4 mps 661 mmHg 62%
    15:00 +22°C° 0.1 mm 4 mps 660 mmHg 63%
    16:00 +21°C° 0.3 mm 4 mps 660 mmHg 67%
    17:00 +20°C° 0.3 mm 3 mps 660 mmHg 71%
    18:00 +19°C° 0.3 mm 3 mps 660 mmHg 76%
    19:00 +18°C° 0.1 mm 2 mps 660 mmHg 78%
    20:00 +17°C° 0.1 mm 2 mps 660 mmHg 80%
    21:00 +16°C° 0.1 mm 2 mps 660 mmHg 82%
    22:00 +16°C° 0 mm 2 mps 659 mmHg 80%
    23:00 +16°C° 0 mm 2 mps 659 mmHg 78%

    25 August, Saturday

    Time Temperature Precipitation Wind Pressure Humidity
    00:00 +15°C° 0 mm 2 mps 659 mmHg 77%
    01:00 +15°C° 0 mm 2 mps 659 mmHg 76%
    02:00 +15°C° 0 mm 1 mps 658 mmHg 75%
    03:00 +15°C° 0 mm 1 mps 658 mmHg 74%
    04:00 +15°C° 0 mm 1 mps 658 mmHg 73%
    05:00 +15°C° 0 mm 1 mps 658 mmHg 72%
    06:00 +15°C° 0 mm 1 mps 658 mmHg 71%
    07:00 +18°C° 0 mm 2 mps 659 mmHg 64%
    08:00 +20°C° 0 mm 2 mps 660 mmHg 58%
    09:00 +23°C° 0 mm 2 mps 660 mmHg 51%
    10:00 +24°C° 0.1 mm 3 mps 660 mmHg 50%
    11:00 +24°C° 0.1 mm 3 mps 660 mmHg 48%
    12:00 +25°C° 0.1 mm 4 mps 660 mmHg 47%
    13:00 +25°C° 0.3 mm 4 mps 660 mmHg 48%
    14:00 +25°C° 0.3 mm 4 mps 660 mmHg 50%
    15:00 +25°C° 0.3 mm 4 mps 660 mmHg 51%
    16:00 +22°C° 0.1 mm 4 mps 660 mmHg 56%
    17:00 +21°C° 0.1 mm 3 mps 659 mmHg 61%
    18:00 +20°C° 0.1 mm 3 mps 659 mmHg 66%
    19:00 +19°C° 0.1 mm 3 mps 659 mmHg 70%
    20:00 +17°C° 0.1 mm 2 mps 659 mmHg 74%
    21:00 +16°C° 0.1 mm 2 mps 659 mmHg 78%
    22:00 +16°C° 0 mm 2 mps 658 mmHg 77%
    23:00 +16°C° 0 mm 2 mps 658 mmHg 75%

    26 August, Sunday

    Time Temperature Precipitation Wind Pressure Humidity
    00:00 +16°C° 0 mm 2 mps 658 mmHg 74%
    01:00 +16°C° 0 mm 2 mps 658 mmHg 72%
    02:00 +15°C° 0 mm 2 mps 658 mmHg 70%
    03:00 +15°C° 0 mm 2 mps 657 mmHg 68%
    04:00 +15°C° 0 mm 2 mps 657 mmHg 66%
    05:00 +15°C° 0 mm 2 mps 657 mmHg 63%
    06:00 +16°C° 0 mm 2 mps 658 mmHg 61%
    07:00 +18°C° 0 mm 2 mps 658 mmHg 53%
    08:00 +21°C° 0 mm 3 mps 659 mmHg 46%
    09:00 +24°C° 0 mm 3 mps 659 mmHg 39%
    10:00 +25°C° 0 mm 3 mps 659 mmHg 38%
    11:00 +26°C° 0 mm 3 mps 659 mmHg 37%
    12:00 +27°C° 0 mm 4 mps 659 mmHg 36%
    13:00 +27°C° 0 mm 4 mps 658 mmHg 38%
    14:00 +27°C° 0 mm 4 mps 658 mmHg 40%
    15:00 +27°C° 0 mm 4 mps 658 mmHg 42%
    16:00 +25°C° 0 mm 4 mps 657 mmHg 48%
    17:00 +22°C° 0 mm 3 mps 657 mmHg 55%
    18:00 +21°C° 0 mm 3 mps 657 mmHg 61%
    19:00 +20°C° 0 mm 2 mps 656 mmHg 64%
    20:00 +18°C° 0 mm 2 mps 656 mmHg 68%
    21:00 +17°C° 0 mm 2 mps 656 mmHg 71%
    22:00 +17°C° 0.1 mm 2 mps 656 mmHg 69%
    23:00 +16°C° 0.1 mm 2 mps 656 mmHg 67%

    27 August, Monday

    Time Temperature Precipitation Wind Pressure Humidity
    00:00 +16°C° 0.1 mm 2 mps 656 mmHg 65%
    01:00 +16°C° 0 mm 2 mps 656 mmHg 63%
    02:00 +16°C° 0 mm 2 mps 655 mmHg 61%
    03:00 +16°C° 0 mm 2 mps 655 mmHg 59%
    04:00 +16°C° 0 mm 2 mps 655 mmHg 59%
    05:00 +16°C° 0 mm 1 mps 656 mmHg 58%
    06:00 +16°C° 0 mm 1 mps 656 mmHg 58%
    07:00 +18°C° 0 mm 2 mps 656 mmHg 53%
    08:00 +20°C° 0 mm 2 mps 657 mmHg 48%
    09:00 +23°C° 0 mm 2 mps 657 mmHg 43%
    10:00 +24°C° 0 mm 3 mps 657 mmHg 43%
    11:00 +25°C° 0 mm 3 mps 657 mmHg 42%
    12:00 +26°C° 0 mm 4 mps 658 mmHg 41%
    13:00 +25°C° 0.2 mm 4 mps 657 mmHg 43%
    14:00 +25°C° 0.2 mm 4 mps 657 mmHg 45%
    15:00 +25°C° 0.2 mm 4 mps 657 mmHg 47%
    16:00 +22°C° 0.3 mm 3 mps 657 mmHg 53%
    17:00 +21°C° 0.3 mm 3 mps 657 mmHg 60%
    18:00 +20°C° 0.3 mm 2 mps 657 mmHg 66%
    19:00 +19°C° 0.3 mm 2 mps 657 mmHg 71%
    20:00 +18°C° 0.3 mm 1 mps 657 mmHg 76%
    21:00 +16°C° 0.3 mm 1 mps 657 mmHg 81%
    22:00 +16°C° 0.1 mm 1 mps 657 mmHg 81%
    23:00 +16°C° 0.1 mm 1 mps 657 mmHg 81%
    Show more